User: anonymous   Login
Location: Strawberry
(45.6646°N, 111.9596°W)
Time: 12:42:00
(UTC+00:00)
Language:

Hubble Space Telescope - Orbit

View from above orbital plane
View from above orbital plane
View from above satellite
View from above satellite

Ground track
Ground track

The orbit data is extracted from the following two-line orbital elements,

1 20580U 90037B   22268.11944774  .00002599  00000-0  14131-3 0  9999
2 20580  28.4694 228.2374 0002566  35.4693  70.5118 15.10912352581305
Epoch (UTC): 25 September 2022 02:52:00
Eccentricity: 0.0002566
inclination: 28.4694°
perigee height: 531 km
apogee height: 535 km
right ascension of ascending node: 228.2374°
argument of perigee: 35.4693°
revolutions per day: 15.10912352
mean anomaly at epoch: 70.5118°
orbit number at epoch: 58130

The dashed part of the orbit path shows where the satellite is in the earth's shadow,  

DLR